• In Belgium
  • List of Countries
  • For 7 days
  • Water Temperature
  • Satellite Maps
  • Weather Map
  • Weather Widgets
  • user-avatar
    Login

    Hourly Weather Arlon

    Today, 22 October, Sunday

    Time Temperature Precipitation Wind Pressure Humidity
    00:00 +7°C° 0 mm 5 mps 731 mmHg 88%
    01:00 +5°C° 0 mm 6 mps 730 mmHg 88%
    02:00 +5°C° 0 mm 6 mps 730 mmHg 88%
    03:00 +5°C° 0 mm 6 mps 730 mmHg 88%
    04:00 +5°C° 0.4 mm 7 mps 730 mmHg 88%
    05:00 +4°C° 0.4 mm 7 mps 730 mmHg 89%
    06:00 +4°C° 0.4 mm 7 mps 730 mmHg 89%
    07:00 +5°C° 0.6 mm 7 mps 730 mmHg 89%
    08:00 +5°C° 0.6 mm 7 mps 730 mmHg 89%
    09:00 +5°C° 0.6 mm 7 mps 731 mmHg 88%
    10:00 +6°C° 0.3 mm 7 mps 731 mmHg 87%
    11:00 +6°C° 0.3 mm 7 mps 731 mmHg 85%
    12:00 +8°C° 0.3 mm 6 mps 731 mmHg 83%
    13:00 +8°C° 0.3 mm 6 mps 731 mmHg 84%
    14:00 +8°C° 0.3 mm 6 mps 731 mmHg 85%
    15:00 +7°C° 0.3 mm 6 mps 731 mmHg 85%
    16:00 +7°C° 0.1 mm 5 mps 731 mmHg 87%
    17:00 +6°C° 0.1 mm 4 mps 732 mmHg 89%
    18:00 +5°C° 0.1 mm 4 mps 732 mmHg 91%
    19:00 +5°C° 0 mm 4 mps 732 mmHg 91%
    20:00 +5°C° 0 mm 4 mps 733 mmHg 92%
    21:00 +5°C° 0 mm 4 mps 733 mmHg 93%
    22:00 +5°C° 0 mm 4 mps 733 mmHg 94%
    23:00 +5°C° 0 mm 3 mps 733 mmHg 95%

    Tomorrow, 23 October, Monday

    Time Temperature Precipitation Wind Pressure Humidity
    00:00 +5°C° 0 mm 3 mps 733 mmHg 96%
    01:00 +5°C° 0 mm 3 mps 734 mmHg 97%
    02:00 +5°C° 0 mm 3 mps 734 mmHg 97%
    03:00 +5°C° 0 mm 3 mps 734 mmHg 97%
    04:00 +5°C° 0 mm 3 mps 734 mmHg 97%
    05:00 +5°C° 0 mm 4 mps 734 mmHg 96%
    06:00 +6°C° 0 mm 4 mps 735 mmHg 96%
    07:00 +6°C° 0.1 mm 4 mps 735 mmHg 95%
    08:00 +7°C° 0.1 mm 4 mps 735 mmHg 94%
    09:00 +7°C° 0.1 mm 4 mps 736 mmHg 92%
    10:00 +8°C° 0.6 mm 4 mps 736 mmHg 93%
    11:00 +8°C° 0.6 mm 4 mps 736 mmHg 93%
    12:00 +8°C° 0.6 mm 4 mps 736 mmHg 94%
    13:00 +8°C° 0.9 mm 4 mps 736 mmHg 94%
    14:00 +8°C° 0.9 mm 4 mps 736 mmHg 94%
    15:00 +8°C° 0.9 mm 4 mps 736 mmHg 95%
    16:00 +8°C° 0.8 mm 4 mps 736 mmHg 95%
    17:00 +8°C° 0.8 mm 4 mps 736 mmHg 95%
    18:00 +8°C° 0.8 mm 4 mps 736 mmHg 95%
    19:00 +8°C° 0.3 mm 4 mps 736 mmHg 96%
    20:00 +10°C° 0.3 mm 4 mps 736 mmHg 96%
    21:00 +10°C° 0.3 mm 4 mps 736 mmHg 96%
    22:00 +10°C° 0.5 mm 4 mps 736 mmHg 96%
    23:00 +10°C° 0.5 mm 4 mps 736 mmHg 96%

    Day after tomorrow, 24 October, Tuesday

    Time Temperature Precipitation Wind Pressure Humidity
    00:00 +10°C° 0.5 mm 4 mps 736 mmHg 97%
    01:00 +10°C° 0.2 mm 4 mps 736 mmHg 97%
    02:00 +10°C° 0.2 mm 3 mps 736 mmHg 97%
    03:00 +11°C° 0.2 mm 3 mps 736 mmHg 98%
    04:00 +11°C° 0.1 mm 3 mps 736 mmHg 98%
    05:00 +11°C° 0.1 mm 3 mps 736 mmHg 98%
    06:00 +11°C° 0.1 mm 3 mps 736 mmHg 98%
    07:00 +12°C° 0 mm 3 mps 737 mmHg 97%
    08:00 +12°C° 0 mm 3 mps 737 mmHg 96%
    09:00 +12°C° 0 mm 3 mps 737 mmHg 95%
    10:00 +13°C° 0 mm 3 mps 737 mmHg 95%
    11:00 +13°C° 0 mm 3 mps 737 mmHg 94%
    12:00 +13°C° 0 mm 3 mps 737 mmHg 94%
    13:00 +13°C° 0.1 mm 3 mps 737 mmHg 94%
    14:00 +13°C° 0.1 mm 3 mps 737 mmHg 95%
    15:00 +13°C° 0.1 mm 3 mps 737 mmHg 95%
    16:00 +14°C° 0.1 mm 2 mps 737 mmHg 96%
    17:00 +13°C° 0.1 mm 2 mps 738 mmHg 97%
    18:00 +13°C° 0.1 mm 2 mps 738 mmHg 98%
    19:00 +13°C° 0 mm 2 mps 738 mmHg 98%
    20:00 +13°C° 0 mm 2 mps 738 mmHg 98%
    21:00 +13°C° 0 mm 1 mps 738 mmHg 98%
    22:00 +13°C° 0 mm 1 mps 738 mmHg 98%
    23:00 +13°C° 0 mm 1 mps 738 mmHg 98%

    25 October, Wednesday

    Time Temperature Precipitation Wind Pressure Humidity
    00:00 +13°C° 0 mm 1 mps 738 mmHg 98%
    01:00 +12°C° 0 mm 1 mps 738 mmHg 98%
    02:00 +12°C° 0 mm 2 mps 738 mmHg 98%
    03:00 +12°C° 0 mm 2 mps 738 mmHg 98%
    04:00 +12°C° 0 mm 2 mps 738 mmHg 98%
    05:00 +12°C° 0 mm 2 mps 738 mmHg 98%
    06:00 +12°C° 0 mm 2 mps 738 mmHg 98%
    07:00 +13°C° 0 mm 2 mps 738 mmHg 95%
    08:00 +13°C° 0 mm 2 mps 738 mmHg 93%
    09:00 +14°C° 0 mm 2 mps 738 mmHg 90%
    10:00 +15°C° 0 mm 2 mps 738 mmHg 86%
    11:00 +16°C° 0 mm 2 mps 738 mmHg 82%
    12:00 +18°C° 0 mm 2 mps 738 mmHg 78%
    13:00 +18°C° 0 mm 2 mps 738 mmHg 79%
    14:00 +18°C° 0 mm 2 mps 738 mmHg 80%
    15:00 +19°C° 0 mm 1 mps 738 mmHg 80%
    16:00 +16°C° 0 mm 1 mps 738 mmHg 84%
    17:00 +15°C° 0 mm 1 mps 738 mmHg 88%
    18:00 +14°C° 0 mm 1 mps 738 mmHg 91%
    19:00 +13°C° 0 mm 1 mps 738 mmHg 92%
    20:00 +13°C° 0 mm 1 mps 738 mmHg 92%
    21:00 +12°C° 0 mm 1 mps 738 mmHg 92%
    22:00 +12°C° 0 mm 1 mps 738 mmHg 92%
    23:00 +12°C° 0 mm 1 mps 738 mmHg 92%

    26 October, Thursday

    Time Temperature Precipitation Wind Pressure Humidity
    00:00 +11°C° 0 mm 1 mps 738 mmHg 92%
    01:00 +11°C° 0 mm 1 mps 738 mmHg 92%
    02:00 +11°C° 0 mm 1 mps 738 mmHg 92%
    03:00 +10°C° 0 mm 1 mps 738 mmHg 92%
    04:00 +10°C° 0 mm 1 mps 738 mmHg 92%
    05:00 +10°C° 0 mm 1 mps 738 mmHg 92%
    06:00 +10°C° 0 mm 1 mps 739 mmHg 92%
    07:00 +11°C° 0 mm 1 mps 739 mmHg 89%
    08:00 +13°C° 0 mm 1 mps 739 mmHg 85%
    09:00 +14°C° 0 mm 1 mps 740 mmHg 81%
    10:00 +16°C° 0 mm 1 mps 739 mmHg 78%
    11:00 +17°C° 0 mm 2 mps 739 mmHg 74%
    12:00 +18°C° 0 mm 2 mps 739 mmHg 71%
    13:00 +18°C° 0 mm 2 mps 739 mmHg 73%
    14:00 +18°C° 0 mm 2 mps 739 mmHg 76%
    15:00 +18°C° 0 mm 2 mps 738 mmHg 79%
    16:00 +16°C° 0 mm 1 mps 738 mmHg 83%
    17:00 +15°C° 0 mm 1 mps 738 mmHg 87%
    18:00 +13°C° 0 mm 1 mps 738 mmHg 92%
    19:00 +13°C° 0 mm 1 mps 738 mmHg 92%
    20:00 +12°C° 0 mm 1 mps 738 mmHg 93%
    21:00 +12°C° 0 mm 1 mps 738 mmHg 93%
    22:00 +12°C° 0 mm 1 mps 738 mmHg 94%
    23:00 +12°C° 0 mm 1 mps 738 mmHg 94%

    27 October, Friday

    Time Temperature Precipitation Wind Pressure Humidity
    00:00 +11°C° 0 mm 1 mps 738 mmHg 94%
    01:00 +11°C° 0 mm 1 mps 737 mmHg 95%
    02:00 +10°C° 0 mm 2 mps 737 mmHg 95%
    03:00 +10°C° 0 mm 2 mps 737 mmHg 96%
    04:00 +9°C° 0 mm 2 mps 737 mmHg 96%
    05:00 +9°C° 0 mm 2 mps 737 mmHg 96%
    06:00 +9°C° 0 mm 2 mps 737 mmHg 96%
    07:00 +10°C° 0 mm 2 mps 737 mmHg 93%
    08:00 +12°C° 0 mm 2 mps 738 mmHg 90%
    09:00 +13°C° 0 mm 2 mps 738 mmHg 87%
    10:00 +13°C° 0 mm 3 mps 738 mmHg 83%
    11:00 +14°C° 0 mm 3 mps 738 mmHg 80%
    12:00 +14°C° 0 mm 3 mps 738 mmHg 76%
    13:00 +14°C° 0 mm 3 mps 738 mmHg 78%
    14:00 +15°C° 0 mm 2 mps 737 mmHg 80%
    15:00 +15°C° 0 mm 2 mps 737 mmHg 81%
    16:00 +14°C° 0 mm 2 mps 737 mmHg 85%
    17:00 +12°C° 0 mm 2 mps 737 mmHg 90%
    18:00 +11°C° 0 mm 1 mps 737 mmHg 94%
    19:00 +11°C° 0 mm 1 mps 737 mmHg 94%
    20:00 +11°C° 0 mm 1 mps 737 mmHg 95%
    21:00 +11°C° 0 mm 1 mps 737 mmHg 95%
    22:00 +10°C° 0 mm 1 mps 737 mmHg 95%
    23:00 +10°C° 0 mm 1 mps 737 mmHg 96%
    Show more